Theta_e
345 347 347 348 347 346 348 349 349 349 349 348 348 348 349 349 350 349 349 349 348 348 345 343 342 340 339 339 338 338 338 339 340 341 341 342 344 345 346 347 345 345 347 347 347 348 348 348 347 347 347 347 346 346 345 346 345 346 345 345 344 343 343 342 342 342 342 343 343 343 343 341 340 338 337 337 336 336 338 340 341 341 341 341 341
346 347 348 349 348 348 348 349 350 350 349 348 348 349 349 350 350 349 349 348 348 349 346 343 341 339 338 339 338 337 337 337 339 340 340 340 341 342 344 346 345 345 347 347 346 348 348 348 348 347 346 347 347 346 346 347 346 346 346 345 345 343 343 343 342 342 342 343 343 343 344 343 341 341 340 339 338 337 337 337 338 340 341 341 342
346 349 350 350 349 349 349 350 350 350 350 348 348 348 349 350 350 349 349 349 349 349 346 342 339 337 338 337 338 338 337 337 337 338 339 339 340 341 341 343 344 344 346 347 346 347 348 347 347 346 345 346 346 346 347 347 346 346 346 346 345 344 343 344 342 342 342 342 343 343 344 343 342 342 342 341 341 340 339 338 337 338 338 339 340
346 350 351 351 350 350 350 351 351 350 350 349 348 349 349 349 349 350 349 349 349 347 344 341 338 337 337 337 338 338 338 337 337 337 337 338 339 340 340 341 341 342 345 347 346 347 347 346 347 345 345 346 346 346 346 347 346 346 347 346 346 346 345 344 343 342 342 342 342 342 342 342 342 342 342 342 342 342 341 340 339 339 338 338 338
347 350 351 351 350 350 350 351 350 350 350 349 348 349 349 348 349 350 349 349 349 346 343 341 339 337 337 337 338 338 337 337 337 336 337 337 339 340 340 339 339 340 343 345 346 346 346 346 347 346 346 346 345 345 346 347 347 345 345 346 345 346 346 345 344 344 343 342 342 342 341 341 342 342 342 342 342 341 341 341 341 341 341 340 340
349 351 352 352 351 350 349 350 350 350 350 350 349 349 349 349 349 349 349 349 349 347 344 341 340 338 337 338 338 338 338 338 336 335 336 337 338 340 340 339 338 339 340 342 344 345 345 346 346 346 347 347 346 346 346 347 347 345 345 345 346 346 346 346 345 345 344 343 343 342 341 341 341 341 341 340 340 340 340 340 340 341 342 341 341
350 351 352 352 352 350 349 349 350 351 351 351 350 349 349 349 349 349 348 348 348 347 345 342 340 339 338 338 338 338 338 338 337 336 335 336 338 339 340 340 339 338 338 340 342 343 343 344 346 346 347 347 346 346 347 346 346 345 345 345 346 345 344 345 346 346 345 344 344 343 342 342 341 341 340 340 340 339 339 338 339 339 341 341 341
350 351 352 352 351 350 349 350 350 352 352 351 351 350 350 350 350 350 349 348 347 346 345 342 341 339 338 338 338 339 338 338 337 337 336 336 338 339 340 340 340 340 339 339 340 341 342 343 344 345 346 346 344 345 347 346 345 345 345 345 345 345 343 344 345 345 345 344 345 344 344 343 343 342 341 340 340 340 340 339 339 339 339 340 340
351 352 352 352 352 350 350 351 351 353 352 352 351 351 350 350 350 351 350 349 347 346 344 341 340 340 338 337 338 339 338 338 338 338 338 338 339 339 340 341 341 341 341 341 340 340 341 341 343 344 346 346 343 344 346 346 346 345 346 346 345 345 343 343 344 345 345 345 345 344 344 344 344 343 342 342 342 342 342 341 340 340 340 339 339
353 352 353 352 352 351 351 352 352 353 352 351 351 351 351 351 351 351 351 349 348 346 344 341 339 339 338 337 337 339 339 338 338 338 338 338 339 339 339 340 341 342 341 342 341 341 340 339 340 342 344 344 343 344 345 345 346 346 346 347 346 346 345 343 344 345 345 344 345 345 344 344 344 343 343 343 344 343 342 340 340 341 341 340 339
353 353 353 353 353 352 352 353 353 353 352 351 351 351 351 351 351 351 351 350 348 347 344 341 339 338 338 336 336 338 339 339 338 338 338 338 338 338 339 339 339 341 341 341 342 342 341 339 339 340 341 342 342 343 344 345 346 346 346 346 345 346 346 344 344 344 344 344 345 345 344 344 344 344 344 343 344 343 341 342 342 342 342 341 340
352 353 352 353 354 353 353 353 354 354 353 353 352 351 352 351 351 350 350 350 349 347 344 341 338 337 337 337 338 339 339 337 337 338 339 338 339 338 338 337 337 338 339 341 342 342 342 341 341 341 341 341 341 342 343 345 346 346 345 345 344 345 345 345 345 345 345 345 346 345 345 345 344 344 344 344 344 343 342 343 342 342 343 343 342
353 352 352 353 354 354 353 354 354 354 354 353 353 353 352 351 350 350 350 350 349 346 343 340 337 337 337 338 338 339 339 338 337 338 339 339 339 339 338 336 336 336 336 337 338 340 340 340 341 342 343 341 340 340 341 342 344 344 343 343 344 344 345 345 345 346 346 346 346 346 345 346 345 344 344 344 344 344 343 343 342 342 343 343 343
353 352 352 353 353 354 354 354 355 354 354 353 353 353 353 351 351 351 351 351 349 345 343 340 338 338 336 337 340 341 340 339 339 338 338 338 339 339 338 336 336 335 335 335 334 334 334 337 340 341 341 340 340 340 341 341 342 342 343 344 345 344 344 344 344 346 346 345 345 344 345 345 345 344 345 345 344 344 344 344 343 343 344 344 343
353 352 352 352 353 354 354 355 354 354 354 353 353 354 354 353 352 352 351 350 347 344 343 340 338 339 338 339 342 343 343 341 340 339 338 338 339 340 339 336 336 336 335 335 333 330 329 330 334 337 338 339 339 339 340 341 340 339 339 340 340 341 342 343 344 344 345 344 344 344 344 344 344 344 344 344 344 344 344 344 343 344 344 344 344
353 352 352 352 353 354 354 354 355 354 353 353 353 353 354 354 352 352 351 348 346 344 342 339 338 339 340 341 339 341 347 343 338 339 339 339 339 340 340 338 337 337 336 335 333 329 326 325 327 331 334 336 335 335 338 340 336 334 332 327 325 327 332 339 343 344 344 344 342 340 339 339 340 342 343 343 343 343 343 343 343 343 344 344 343
353 353 353 353 353 354 354 355 354 354 353 352 352 352 354 355 352 351 350 347 345 343 341 337 337 338 340 343 341 344 350 342 336 338 337 338 340 340 341 340 338 337 336 336 333 329 325 323 325 328 331 333 333 333 335 336 330 327 325 318 316 317 319 326 334 337 337 336 331 326 324 325 327 330 334 337 339 340 341 341 342 342 343 343 343
354 354 354 354 354 355 355 355 354 354 353 352 351 352 354 355 353 352 350 346 344 341 338 336 336 337 338 341 341 343 346 341 339 341 336 335 339 341 342 341 340 338 337 337 334 330 326 324 325 327 328 331 331 330 329 329 325 321 320 318 318 317 314 315 318 320 321 319 317 316 316 316 317 317 320 324 326 328 330 331 332 334 336 337 338
354 354 355 355 354 355 355 354 354 354 354 352 352 352 353 355 354 351 348 345 342 338 337 336 336 337 338 339 338 338 340 339 340 344 343 337 335 338 341 341 341 340 338 338 335 331 328 324 324 326 327 328 328 328 326 325 323 321 323 322 322 320 317 317 316 316 316 316 318 320 320 319 318 316 315 316 316 317 318 318 319 320 321 324 325
355 355 356 355 355 355 354 354 354 354 354 353 352 352 354 355 353 349 347 343 340 337 336 337 337 338 337 337 337 337 338 338 338 340 344 345 337 335 337 338 340 341 338 338 337 333 329 326 326 327 328 327 327 328 328 326 324 325 325 325 325 324 322 323 323 322 322 323 324 326 326 325 323 320 317 316 315 315 315 316 316 316 316 317 317
355 356 356 355 355 354 354 354 354 355 355 354 353 353 354 354 350 347 344 341 338 338 337 338 338 338 337 336 336 337 337 337 336 334 337 344 342 336 334 335 337 339 338 337 337 334 330 328 327 328 329 328 328 328 329 328 327 327 327 327 327 326 326 326 326 326 326 327 327 327 328 328 326 324 320 318 317 317 316 316 316 316 315 316 316
356 356 355 354 354 354 354 354 354 355 355 354 353 353 353 353 348 344 343 340 337 337 338 338 338 338 339 336 334 336 337 335 335 334 332 335 339 335 332 333 336 337 336 335 334 332 330 328 327 328 330 329 329 329 329 329 329 328 328 328 328 327 328 328 327 327 327 327 327 327 328 328 328 327 324 323 323 322 322 321 320 318 317 317 316
355 355 355 354 354 354 354 355 355 356 356 355 354 352 351 350 345 341 340 338 337 337 337 338 338 338 339 338 335 335 336 336 335 334 331 331 336 336 330 331 334 334 334 334 332 330 330 329 328 328 330 330 329 329 329 329 329 329 329 328 328 328 328 328 328 328 328 327 328 328 328 328 329 329 328 328 328 328 328 327 326 325 324 322 321
355 355 354 354 354 355 355 355 356 356 356 356 355 352 349 348 343 338 336 337 338 338 338 337 337 337 338 339 337 334 335 336 335 335 333 331 334 334 330 330 332 332 331 331 331 330 329 329 328 328 329 330 330 330 329 330 330 330 329 329 329 329 329 329 329 329 329 329 329 329 329 329 329 330 330 330 330 330 330 330 330 329 329 328 327
354 354 354 354 354 355 355 355 356 356 356 356 356 351 347 346 342 337 335 336 338 339 339 339 338 336 337 338 337 335 335 335 335 335 334 331 331 331 330 330 331 331 330 329 329 329 328 328 329 328 328 329 330 330 330 330 330 330 330 330 329 329 329 329 329 329 329 329 329 329 329 329 329 330 330 330 330 330 330 330 330 330 330 330 329
353 353 353 353 353 354 355 355 356 355 356 357 355 350 345 344 342 339 337 337 338 339 339 339 338 336 336 336 336 336 335 335 336 335 334 333 331 330 331 333 332 331 331 331 331 330 329 329 329 328 328 329 330 331 331 331 331 331 330 330 329 329 329 329 330 329 329 329 329 330 330 329 330 330 330 330 330 330 330 330 330 330 330 330 330
353 353 352 353 353 354 355 356 356 355 356 357 355 349 344 343 342 341 340 340 339 340 340 339 339 337 336 336 336 336 336 336 336 336 335 334 332 330 332 337 338 335 333 333 333 332 330 330 329 329 329 328 329 331 332 332 332 332 331 331 331 330 329 329 330 330 330 330 330 330 330 330 330 330 330 330 330 331 330 330 330 330 330 330 330
352 351 350 352 353 354 355 356 355 355 356 357 354 349 344 342 342 341 341 341 341 341 340 339 339 338 337 335 335 336 337 337 336 335 335 334 333 331 331 334 338 341 341 339 336 334 332 331 331 331 330 329 330 330 332 332 332 332 333 332 332 330 329 329 330 331 331 331 331 331 331 331 331 331 330 331 331 331 331 331 331 331 331 331 331
351 350 350 351 353 354 355 356 355 356 357 357 354 348 343 342 342 341 341 341 341 340 339 339 339 339 338 335 334 335 337 337 335 334 335 334 333 332 331 330 332 340 345 346 341 335 332 333 332 333 333 332 332 332 332 332 332 333 332 332 331 330 330 331 331 331 331 331 331 331 332 332 332 331 331 331 331 331 331 331 331 331 331 331 331
350 350 350 352 354 354 355 356 355 356 357 356 353 349 344 343 342 341 341 341 341 339 338 339 340 339 338 336 333 333 336 336 335 334 335 335 334 332 332 330 329 333 337 342 343 334 330 333 332 332 333 332 332 332 331 332 332 332 332 332 332 331 331 331 331 331 331 332 331 331 331 331 332 332 331 331 331 330 330 330 330 330 330 331 331
351 350 351 352 354 355 355 356 356 357 357 355 353 349 345 344 343 341 341 341 341 340 339 339 340 340 338 336 334 333 335 336 335 335 336 335 335 333 332 331 330 331 330 334 339 335 330 331 331 331 332 332 332 332 332 332 332 331 331 331 331 331 330 331 331 331 331 330 329 328 328 329 330 331 331 331 330 330 330 329 329 329 330 330 330
351 351 351 352 354 355 355 356 356 357 357 354 352 349 346 346 344 342 341 341 341 340 339 339 339 340 338 336 336 335 334 335 335 336 336 335 335 334 333 332 332 332 331 331 335 334 331 331 331 332 332 332 332 331 330 331 330 330 330 330 330 330 330 330 330 330 329 328 326 326 326 327 328 329 329 329 329 329 329 329 329 330 330 330 330
352 351 351 352 354 355 355 355 356 357 356 354 351 349 347 347 346 344 343 342 342 341 340 340 339 339 338 336 336 336 335 334 334 335 336 335 335 335 334 334 333 334 333 332 332 332 331 331 331 332 331 331 331 330 329 329 330 330 330 330 330 330 331 331 331 330 330 328 326 325 325 326 327 328 328 328 328 328 328 329 329 329 329 329 329
352 351 351 352 353 355 355 355 356 356 356 354 351 349 348 348 348 347 345 344 343 343 342 341 340 339 339 337 337 337 336 334 334 335 336 335 335 335 334 335 334 334 334 333 332 332 333 332 332 332 332 331 331 330 330 331 331 331 331 331 331 332 332 333 332 332 331 330 328 325 325 325 326 326 327 327 328 328 328 328 328 328 328 327 327
352 352 352 352 353 354 354 354 355 355 355 353 351 349 348 348 348 348 347 345 344 343 343 342 340 339 339 338 337 337 337 336 335 334 335 336 336 335 335 334 334 334 333 333 333 333 333 334 333 332 332 332 332 331 331 332 333 333 332 332 332 332 332 332 332 332 332 331 330 328 326 326 326 326 327 327 328 328 328 328 327 327 326 326 325
353 352 352 353 353 353 354 354 354 354 354 353 351 350 349 348 348 348 348 346 344 343 343 342 341 339 338 338 338 337 337 337 335 334 334 335 336 336 335 335 335 334 333 333 334 334 334 334 334 333 333 333 332 332 332 332 333 333 333 332 332 331 330 330 331 331 332 331 330 328 328 327 326 326 327 327 327 326 325 324 323 322 321 321 320
353 353 353 353 353 353 353 353 353 353 353 352 351 351 350 349 349 348 348 347 344 343 343 343 341 339 338 338 338 338 338 337 336 334 334 334 336 336 335 335 335 334 333 334 334 334 334 334 334 334 333 333 332 332 332 332 332 332 333 333 332 331 330 330 330 331 331 331 330 329 327 327 326 325 325 325 324 322 321 319 318 317 317 318 318
354 353 353 353 353 353 353 353 353 353 352 352 351 351 350 349 349 349 348 347 344 343 343 343 341 340 339 338 338 337 338 337 336 335 334 334 335 336 336 336 335 334 334 334 334 335 335 334 334 334 333 333 333 333 332 332 333 333 333 333 332 331 331 330 330 330 330 330 329 328 328 327 326 325 324 323 322 321 319 317 317 316 317 318 318
354 353 353 353 353 353 353 353 353 353 352 351 351 351 350 349 349 348 347 346 344 343 342 342 342 341 340 339 338 337 338 337 337 336 335 335 335 336 336 336 335 335 334 334 334 334 334 334 334 334 333 333 333 333 333 333 333 334 333 332 331 331 330 330 330 329 329 328 328 327 327 327 326 325 324 323 322 320 318 317 317 318 318 318 319
354 354 353 353 353 353 353 353 353 352 352 351 351 350 350 349 348 348 347 346 345 343 342 342 341 341 341 340 338 338 338 337 337 337 336 335 336 335 335 336 336 335 334 334 334 334 334 334 334 334 334 333 333 333 333 333 333 333 332 330 330 330 330 331 331 330 330 329 328 328 327 327 326 324 324 323 321 319 318 318 318 319 319 319 319
354 354 354 354 353 353 353 353 352 352 351 351 351 350 349 349 348 347 347 346 345 344 342 342 341 341 341 340 339 338 338 337 337 336 335 335 336 335 335 336 335 335 334 334 334 334 334 334 334 334 334 334 333 334 333 333 333 332 331 330 329 330 331 331 331 331 330 329 329 328 327 327 326 324 322 321 319 318 318 318 319 318 318 319 319
355 354 354 354 353 353 352 352 352 351 351 351 351 351 350 349 348 348 348 347 346 345 344 342 342 342 341 340 339 338 337 337 337 337 336 336 336 335 335 335 335 334 334 334 334 334 334 334 334 334 334 334 334 334 333 333 332 331 331 330 330 330 330 330 331 331 330 329 329 328 328 327 326 323 321 319 318 319 319 319 319 318 318 318 319
355 355 355 354 353 353 353 352 352 351 351 351 351 351 350 350 349 348 348 347 346 346 345 344 343 342 342 340 339 338 337 337 337 337 337 336 336 335 336 336 335 335 335 335 334 334 334 334 334 334 334 334 334 334 332 332 331 331 331 330 330 330 330 330 331 330 329 329 329 328 328 326 324 321 320 319 319 319 319 319 319 318 319 319 318
355 355 355 354 354 353 353 352 352 351 351 351 351 351 350 350 350 349 348 348 347 346 345 344 343 343 342 340 338 337 337 338 338 338 337 336 336 336 336 336 335 335 334 334 334 334 334 334 334 334 334 334 333 332 332 331 332 331 331 331 331 330 330 330 330 330 329 328 328 328 326 323 321 320 319 319 319 319 319 318 318 317 317 317 317
355 355 355 354 354 354 353 353 352 352 352 352 351 351 351 350 350 350 349 348 347 346 346 345 343 343 341 340 339 338 338 338 338 337 337 336 335 336 336 336 335 334 334 334 334 334 333 333 334 333 333 332 332 332 332 332 332 331 331 331 331 330 330 330 329 329 329 328 327 325 323 321 319 319 319 319 319 318 318 317 316 315 315 313 312
355 355 355 354 354 354 354 353 353 352 352 352 351 351 351 351 351 350 349 348 347 347 346 345 344 343 341 341 340 339 337 337 337 337 337 336 335 336 336 335 334 334 334 334 334 333 332 332 332 332 332 332 332 332 332 332 332 332 331 331 330 330 329 329 328 328 326 324 323 321 320 320 319 319 319 318 318 317 316 315 314 312 310 309 309
355 355 355 355 354 354 354 353 353 353 353 352 352 352 351 352 351 351 350 348 347 347 345 345 344 343 342 341 341 339 337 337 338 337 337 335 335 336 336 334 335 334 334 333 333 332 331 331 331 332 332 331 331 331 331 331 330 330 329 328 328 327 326 326 325 324 322 321 320 319 320 319 317 318 318 316 315 314 312 312 310 309 309 310 311
356 355 355 355 355 354 354 354 353 353 353 353 352 353 352 352 352 351 350 348 347 346 345 345 344 344 343 342 341 340 339 338 338 338 338 336 336 336 336 335 335 334 333 332 331 331 331 331 331 330 329 330 330 330 329 328 327 326 325 325 324 324 323 322 322 321 320 319 317 317 318 318 315 316 316 314 312 312 310 309 308 309 310 311 312
356 356 355 355 355 354 354 354 354 354 353 353 353 353 353 353 352 351 350 348 347 346 345 345 345 344 343 342 341 341 340 340 339 339 338 337 336 337 336 335 334 333 332 331 330 330 330 329 328 328 328 329 328 327 327 326 326 325 324 323 322 321 320 321 322 320 318 317 315 314 316 316 314 314 315 312 310 310 309 308 308 309 310 311 312
356 356 355 355 355 355 354 354 354 354 353 353 353 353 353 353 352 351 350 349 347 346 345 345 345 344 344 343 342 341 341 341 339 339 337 337 337 337 336 335 334 332 330 330 330 329 328 327 328 328 328 328 327 327 326 325 324 322 321 320 320 320 319 320 320 318 315 315 314 313 315 315 313 312 313 312 310 309 308 308 309 309 310 310 310
356 356 356 355 355 355 355 355 354 354 353 353 353 353 353 353 353 352 351 348 346 346 345 344 344 344 343 342 341 341 342 341 340 338 337 336 337 336 335 334 332 329 329 329 328 327 327 328 329 328 328 328 328 327 324 321 320 319 318 318 318 318 318 317 316 316 315 314 312 311 313 314 312 311 311 312 312 311 309 309 309 308 308 308 308
Wind_Speed
15 13 12 11 9 9 8 7 6 6 6 8 8 7 7 7 6 5 4 3 3 4 4 3 4 4 3 3 3 3 3 4 5 5 5 6 7 7 8 7 8 9 10 11 11 11 11 10 10 10 10 10 10 10 10 9 9 9 9 9 9 8 8 8 8 8 7 7 7 8 7 6 6 6 5 5 5 5 5 4 4 4 4 4 4
15 13 12 11 9 9 9 8 7 7 7 9 9 9 8 8 7 6 6 4 4 6 5 4 5 4 3 4 4 2 2 2 4 6 6 6 6 6 6 6 7 8 9 11 11 10 11 10 10 11 12 11 10 10 10 9 10 10 9 9 9 9 9 8 8 8 7 7 7 8 8 7 7 7 6 6 6 6 6 5 5 5 5 5 5
15 14 12 11 10 10 9 9 8 8 9 10 10 10 10 9 7 6 7 6 5 7 5 4 4 2 2 3 3 3 3 3 3 5 6 6 6 5 5 5 6 7 8 9 9 9 10 10 11 12 12 12 11 10 10 10 10 11 10 10 10 10 9 9 9 8 8 8 7 8 8 8 8 8 7 7 8 7 7 7 7 6 6 6 6
16 14 13 11 10 10 10 10 10 8 9 11 10 11 11 9 8 7 8 8 7 6 4 4 4 3 1 2 2 3 4 3 3 4 6 6 7 6 5 4 5 6 6 8 8 9 10 10 11 12 12 12 11 10 11 10 10 10 11 11 11 11 10 10 9 9 9 9 9 9 9 9 9 8 8 8 8 9 9 9 9 8 8 8 8
17 15 13 12 11 11 11 12 11 9 10 11 11 12 12 10 9 9 9 9 8 5 4 4 5 3 2 3 2 2 2 4 5 4 6 8 8 7 6 5 5 5 5 6 7 7 8 9 10 12 13 12 11 11 11 11 11 11 11 11 11 11 11 11 11 10 10 10 10 10 10 10 10 10 9 9 9 9 9 10 10 9 9 9 9
17 15 13 12 12 12 12 13 12 11 11 11 12 13 13 10 10 10 9 10 9 7 5 4 6 4 2 2 2 1 1 4 5 4 5 9 9 8 7 6 5 5 5 5 5 5 6 7 8 10 11 12 12 11 11 12 13 12 11 10 10 11 11 11 11 11 11 11 11 11 11 11 11 10 10 10 10 9 9 9 10 10 10 10 11
17 15 14 13 13 13 13 13 13 13 13 12 13 13 12 11 11 11 10 10 9 7 6 5 6 4 3 3 1 2 1 2 3 3 3 8 9 8 8 7 6 6 6 4 4 5 5 5 7 7 7 10 11 11 11 13 14 13 11 11 11 11 11 11 11 11 11 12 12 12 11 11 11 11 11 11 11 11 10 10 10 10 10 10 11
18 16 15 14 14 14 14 14 14 14 13 13 14 14 13 12 12 12 11 11 9 7 6 6 6 6 4 2 2 2 2 2 1 2 2 8 9 7 7 7 7 7 6 5 4 4 4 5 5 6 6 8 9 10 11 12 14 13 12 12 12 13 12 12 12 11 12 13 13 13 12 12 12 12 12 12 12 12 11 11 11 12 11 10 11
18 17 17 16 15 15 15 15 15 14 14 14 14 14 13 13 12 13 12 11 9 7 6 5 6 7 4 3 3 2 2 0 0 1 3 7 7 6 7 7 8 8 7 6 5 4 4 5 5 5 6 6 6 8 9 10 11 12 12 12 13 14 14 14 13 12 12 13 13 13 13 13 13 13 13 13 12 12 12 13 13 13 13 12 12
19 18 18 17 16 16 16 16 15 15 14 14 14 14 14 14 13 13 12 11 11 8 7 5 5 6 5 3 3 2 2 1 1 2 4 7 7 7 7 7 8 8 8 7 6 5 5 5 6 6 6 5 5 6 6 8 9 9 11 11 12 14 14 14 13 13 14 14 13 13 14 14 14 14 13 13 11 11 13 14 13 14 15 15 14
19 19 19 19 19 18 17 17 16 16 15 14 14 14 14 14 14 13 12 12 11 9 7 7 5 5 5 3 3 3 3 2 3 5 6 7 8 8 7 6 7 7 7 7 7 6 5 5 6 6 6 6 6 6 5 6 6 8 8 8 10 11 13 14 13 13 14 14 14 14 15 15 15 14 14 12 10 12 14 13 12 15 17 16 15
20 19 20 20 20 20 18 18 18 17 16 16 15 15 14 15 14 13 13 12 11 9 8 7 6 5 5 4 3 4 4 2 3 7 9 9 8 8 7 6 5 5 5 6 6 6 5 6 6 6 6 6 7 6 6 5 5 6 6 6 7 8 9 11 12 13 14 14 14 15 15 15 15 15 15 14 11 12 14 12 11 15 16 16 15
20 20 20 21 22 21 20 19 19 18 18 17 16 15 15 14 13 13 13 13 12 9 8 7 5 5 5 5 3 2 4 3 3 7 10 10 9 9 7 6 5 4 4 4 4 4 4 5 5 5 5 5 6 6 6 6 5 5 5 5 5 5 6 8 9 11 12 12 13 15 15 14 14 14 15 14 11 12 13 12 12 15 16 17 16
21 21 21 22 22 22 21 20 20 19 19 18 16 16 15 14 13 13 13 13 11 9 9 7 5 4 3 3 1 1 3 4 5 8 10 11 11 11 9 7 6 4 3 2 2 2 3 3 2 2 3 3 4 4 5 4 4 4 4 4 4 4 5 5 6 7 8 9 11 13 13 13 13 14 14 14 12 12 12 12 12 13 16 17 16
22 22 22 23 23 23 22 21 20 19 19 19 18 17 15 13 12 13 13 13 12 10 10 8 5 4 2 1 1 1 1 3 5 8 10 12 13 14 12 9 8 6 4 2 2 2 1 1 1 2 1 2 2 3 2 1 1 1 1 0 2 3 3 3 3 4 4 5 6 8 8 8 9 10 11 11 12 11 11 12 13 13 15 17 16
21 21 23 23 22 23 22 22 21 20 20 20 19 18 16 14 13 13 13 13 12 11 10 10 8 5 3 1 0 1 0 1 3 6 9 11 13 15 14 12 9 7 5 3 3 2 1 0 1 2 2 2 2 2 1 1 3 3 3 3 2 1 1 1 1 2 2 2 3 5 5 5 5 5 6 6 7 8 8 9 9 10 12 14 14
22 22 23 23 22 22 22 22 22 21 20 20 19 18 16 15 14 14 15 14 13 12 11 11 9 8 5 2 1 0 1 1 2 2 4 7 11 14 15 13 11 8 6 5 4 3 2 1 1 2 2 3 3 2 0 1 3 3 3 4 5 4 3 2 1 0 1 2 3 4 4 4 4 4 4 4 5 5 6 6 6 7 8 9 10
24 23 23 23 23 22 22 22 22 21 21 20 19 18 17 15 15 15 16 15 14 12 12 11 10 10 10 7 4 3 2 3 2 0 1 3 7 12 14 14 12 10 9 7 6 4 3 3 2 2 3 3 3 1 1 2 3 4 4 5 6 6 6 5 4 3 3 3 4 5 6 6 6 5 5 4 4 5 5 5 5 6 7 7 8
26 25 24 24 23 23 22 22 22 21 21 20 19 18 16 15 14 15 16 16 14 13 13 12 10 10 11 11 9 7 5 5 3 1 1 1 4 9 12 13 13 12 11 10 8 6 4 4 3 3 3 3 3 2 2 3 4 5 5 6 7 7 7 6 6 6 5 5 6 7 7 6 6 5 5 5 5 5 5 5 5 5 5 6 6
27 26 25 24 24 23 23 22 22 22 21 20 19 17 16 14 14 15 16 16 14 14 13 12 11 10 9 10 9 7 7 7 5 4 3 1 2 5 9 12 13 14 13 12 11 9 6 5 4 3 3 3 2 2 2 2 3 3 4 5 6 7 7 7 7 6 6 6 7 8 8 8 7 5 5 5 5 5 6 6 6 6 5 5 5
28 27 26 25 25 24 23 23 22 22 21 20 18 17 16 15 15 16 17 16 15 14 13 13 12 11 9 9 8 6 6 6 6 5 3 2 2 2 6 9 11 15 16 14 13 11 9 7 6 4 4 3 2 2 2 2 2 2 3 3 4 5 6 6 6 6 7 7 7 8 9 10 9 7 5 5 5 6 6 6 6 7 7 7 7
29 28 26 25 25 24 24 24 23 22 21 20 19 18 16 16 16 17 18 17 16 15 14 13 12 13 12 10 9 8 6 3 5 5 3 2 2 2 7 9 8 12 16 16 14 13 11 9 7 5 5 5 4 3 4 3 3 3 3 3 3 3 4 5 6 6 7 7 8 8 9 10 10 9 6 6 6 6 6 7 7 7 8 8 8
30 28 27 26 25 25 25 24 23 22 21 20 20 18 17 17 17 18 18 17 16 16 15 14 13 13 14 13 12 10 9 6 5 7 5 3 3 3 7 10 9 11 14 15 16 14 13 12 10 8 6 6 6 5 5 5 5 5 5 5 5 5 5 5 6 7 7 8 8 9 9 10 10 10 8 7 7 7 7 7 8 8 8 9 9
29 29 28 27 26 26 26 26 24 23 21 20 20 19 18 18 19 18 18 17 16 16 15 15 14 14 15 15 14 12 12 9 7 7 7 6 6 5 6 8 8 11 13 13 15 17 16 15 13 11 9 8 8 8 8 8 8 8 8 7 7 7 7 7 7 7 8 8 9 9 9 10 10 10 9 9 9 9 9 9 9 9 9 9 10
30 31 31 29 28 28 28 27 26 23 22 21 20 19 19 20 20 19 18 18 17 17 17 17 16 16 16 16 16 14 14 11 8 8 7 7 6 4 5 5 4 8 11 11 12 14 16 17 16 15 13 11 10 10 11 10 10 10 10 10 9 8 8 9 9 9 9 9 9 10 10 10 10 10 9 9 9 10 10 10 11 11 11 11 11
32 33 32 31 30 30 29 28 26 24 22 21 21 20 20 21 22 21 20 19 18 18 18 18 18 17 16 17 17 16 15 13 10 9 8 7 7 5 6 4 2 3 5 8 9 10 13 16 17 17 16 15 13 12 12 13 12 12 12 12 11 10 9 10 11 11 11 11 11 11 11 11 11 11 11 10 10 10 11 11 11 12 12 12 13
33 33 31 30 30 30 30 29 27 25 23 22 22 21 21 22 23 23 22 21 21 21 20 20 20 18 17 17 17 16 15 14 12 11 10 9 8 9 8 5 1 1 1 3 5 8 11 13 14 16 17 16 15 14 14 14 14 13 13 13 12 11 11 11 11 12 13 13 14 13 13 13 13 13 13 13 12 12 12 12 12 13 13 13 14
33 32 31 30 30 30 30 29 28 26 24 23 23 23 22 23 24 24 23 22 23 23 22 22 21 20 19 18 18 17 15 15 13 11 11 10 9 10 11 9 5 1 1 2 2 6 11 12 11 13 14 15 15 15 15 14 13 12 12 11 10 11 11 12 12 13 14 15 15 15 15 14 14 14 14 15 15 15 15 14 14 14 14 14 14
32 31 31 30 30 29 30 30 28 27 25 24 24 24 24 24 25 25 24 24 23 23 23 23 23 21 20 19 19 18 16 15 13 11 10 10 10 10 12 12 10 4 1 1 2 5 8 10 10 10 11 11 12 12 12 11 10 8 8 9 9 10 11 11 13 13 13 13 13 14 14 14 14 14 15 15 14 15 15 15 15 15 14 14 14
33 32 31 30 30 29 29 29 29 28 26 25 26 26 25 25 25 25 24 24 24 24 24 24 23 22 21 19 19 19 17 15 13 11 10 8 9 10 11 13 13 9 5 2 2 4 6 8 9 9 9 8 8 8 7 7 6 6 6 8 9 10 11 12 12 11 11 11 12 12 12 12 13 13 13 13 13 13 13 13 14 14 14 14 14
32 32 31 31 30 30 30 30 30 29 28 27 27 27 27 26 25 25 26 26 26 26 25 25 24 23 22 20 19 18 18 16 13 12 11 9 8 8 9 11 12 12 10 5 2 3 6 7 8 8 9 8 8 7 7 7 7 6 7 8 10 11 11 12 11 11 11 12 12 12 12 12 12 12 11 11 11 11 12 12 13 13 13 13 13
33 32 32 32 31 31 30 30 30 30 29 29 28 28 28 28 27 27 27 27 27 27 26 25 25 24 23 22 20 19 18 17 16 14 13 11 10 9 9 10 10 11 12 9 5 7 10 9 8 7 8 9 9 9 9 9 9 8 8 9 9 10 10 11 10 11 12 12 12 12 13 13 13 13 12 12 12 12 12 12 12 13 13 13 14
33 33 33 33 32 32 31 31 31 31 31 31 30 29 29 29 29 29 29 29 29 28 27 27 27 26 25 23 22 20 18 18 18 16 14 13 13 11 10 11 11 11 12 11 10 10 11 10 9 9 8 8 9 9 9 9 8 8 9 9 9 10 10 10 10 11 11 12 13 13 13 13 14 14 14 14 14 14 13 13 13 13 13 14 14
34 34 34 34 33 32 32 32 32 33 33 33 32 31 31 31 31 31 31 31 31 30 29 29 29 28 27 25 24 22 20 19 19 18 16 15 15 15 14 14 14 14 14 14 14 12 11 11 10 11 10 10 10 10 9 9 9 9 9 10 10 10 11 11 12 12 12 13 13 12 12 14 15 16 16 15 14 14 14 14 15 15 16 16 17
34 34 35 35 34 33 33 33 33 34 34 34 33 33 33 32 32 33 33 33 33 32 32 31 30 29 28 27 26 24 22 21 21 20 19 18 17 17 17 16 16 16 16 16 16 15 13 11 11 11 11 11 11 11 10 10 9 10 11 12 11 11 12 13 14 14 13 13 14 13 13 14 14 15 16 16 15 15 15 15 16 17 19 20 21
34 34 35 35 35 34 34 34 35 35 35 35 35 35 34 34 34 34 34 34 34 34 33 32 30 29 29 29 28 26 24 23 22 22 21 20 19 17 18 18 17 17 17 17 18 17 14 12 11 11 11 11 11 10 10 11 11 11 13 13 13 13 13 14 15 14 13 13 13 14 14 14 14 14 14 15 15 16 17 17 19 19 20 21 21
34 34 34 35 35 35 36 36 36 36 36 36 36 36 36 36 35 35 34 34 35 35 35 34 32 31 31 30 30 28 26 24 23 23 23 22 21 19 18 18 18 18 17 18 19 18 16 15 14 13 12 12 12 11 11 13 13 13 14 15 15 14 15 16 15 13 12 12 12 13 14 14 13 13 13 13 14 16 18 19 20 21 21 21 20
34 34 35 35 36 37 38 38 38 38 37 36 37 37 37 37 36 35 35 35 35 35 35 35 34 33 32 32 30 29 28 27 25 24 23 23 22 21 20 19 18 18 18 19 19 18 18 18 17 16 15 14 14 13 13 13 15 16 17 17 16 15 17 18 16 13 11 11 12 13 14 14 13 13 13 14 16 18 19 19 19 19 19 18 16
35 35 36 36 37 39 39 39 39 38 37 37 37 38 38 37 37 36 35 35 35 35 35 35 34 34 34 33 31 30 30 28 26 24 25 24 24 23 22 20 19 19 19 19 19 19 19 19 18 18 18 16 15 15 14 14 15 15 13 15 20 21 20 18 17 15 13 12 14 15 16 16 15 14 14 16 19 20 19 18 17 17 16 15 14
36 36 37 38 39 40 40 40 39 38 37 38 38 38 38 37 37 37 36 35 35 34 34 34 34 35 34 34 33 31 30 28 25 24 25 26 26 25 24 22 22 21 21 20 19 19 19 18 18 18 18 16 15 14 14 14 14 12 8 14 23 26 22 19 18 17 16 15 16 17 17 18 17 15 15 18 21 20 18 17 17 16 15 15 15
37 37 37 39 40 40 40 39 39 38 38 38 39 40 39 38 37 37 36 36 35 35 34 34 34 35 35 34 33 31 30 28 25 24 24 26 29 29 26 25 24 23 22 21 19 19 18 17 18 18 16 15 16 14 13 13 13 13 11 13 19 22 21 21 20 18 16 17 17 18 18 17 16 16 17 20 21 19 17 17 17 17 17 17 17
38 38 38 39 40 40 39 38 38 38 38 40 41 41 41 40 38 37 36 36 36 35 34 34 34 35 35 35 33 30 28 26 26 25 24 26 30 30 27 25 24 23 23 21 20 19 18 17 18 17 14 15 16 14 13 13 14 14 13 11 14 18 18 18 19 17 15 15 16 18 19 17 16 18 20 21 20 17 17 18 18 18 18 18 17
40 40 40 40 41 40 39 38 38 38 40 41 42 42 42 40 39 37 36 36 36 36 35 35 35 36 36 34 30 27 26 27 28 27 25 25 27 28 27 24 22 21 22 21 21 20 19 18 18 15 13 14 16 13 13 15 15 14 13 11 13 14 14 13 14 15 15 13 14 17 19 19 19 21 23 22 20 18 18 19 18 17 17 17 17
41 41 41 42 41 39 38 38 39 39 41 42 43 42 42 41 40 38 37 36 36 35 36 36 35 36 34 29 26 26 27 28 29 27 23 22 24 27 28 24 21 20 20 19 19 19 18 17 16 15 13 14 15 14 14 14 14 12 12 12 12 12 13 12 11 14 15 15 15 17 19 20 22 23 24 23 21 19 18 19 18 18 18 19 20
42 41 42 41 40 39 38 39 39 39 41 42 43 43 41 40 40 39 37 37 36 36 36 36 35 35 32 28 27 29 29 27 27 25 22 21 23 26 27 24 21 19 17 16 16 16 15 14 14 14 13 12 13 13 12 11 12 12 12 12 12 11 12 12 13 16 17 15 16 17 19 22 22 22 23 23 21 19 18 19 20 20 21 23 24
40 40 40 40 39 39 40 39 39 39 41 42 43 42 41 40 39 39 38 37 36 36 36 35 35 34 32 31 31 29 26 25 27 25 20 19 23 25 25 24 21 18 16 15 15 15 13 12 13 13 11 11 11 12 11 11 12 12 11 11 10 9 11 12 13 16 16 16 17 15 15 19 19 19 22 22 20 19 20 22 22 22 23 23 21
40 40 39 39 39 39 39 39 37 38 41 42 42 41 40 40 38 38 38 37 36 36 35 34 34 33 32 33 32 30 26 25 27 25 19 19 23 26 25 24 21 18 17 16 15 13 12 11 11 10 9 9 10 11 11 11 11 10 10 10 9 10 11 13 14 16 16 16 16 12 11 15 17 18 21 22 21 21 22 22 23 22 20 18 15
38 38 38 38 38 38 38 37 37 39 40 40 40 40 40 39 38 37 37 37 36 34 33 33 33 32 32 31 31 30 28 26 27 25 21 20 23 25 24 23 21 19 17 15 13 11 9 8 7 7 7 8 9 9 8 7 7 7 7 9 10 11 12 13 14 16 16 14 13 11 11 15 18 18 20 21 22 23 24 22 20 17 15 14 14
36 36 36 37 37 37 36 37 39 40 39 38 40 40 39 38 37 36 37 37 35 33 32 32 32 31 31 31 30 28 26 25 26 24 21 21 23 25 24 24 21 18 16 13 11 8 6 5 5 6 7 6 5 5 4 5 6 8 9 11 12 12 12 10 10 11 12 12 14 13 12 15 18 18 20 21 22 23 23 20 17 15 14 15 15
36 36 36 35 35 36 37 39 41 40 38 38 39 39 39 38 37 37 37 36 34 33 32 31 31 30 29 29 27 26 25 24 23 22 21 22 24 25 25 24 21 18 15 12 9 6 5 5 5 5 4 4 4 5 6 8 9 10 11 12 12 11 10 8 7 9 12 14 14 11 10 15 17 17 18 20 21 22 21 18 17 16 15 15 15
37 36 35 34 33 35 38 40 41 39 37 36 37 37 37 37 37 37 37 35 33 32 30 29 29 28 27 26 24 24 23 22 21 21 20 22 25 26 25 23 21 18 14 11 8 6 5 5 4 4 5 5 6 8 9 10 10 9 9 9 8 8 7 7 8 8 8 10 12 10 10 14 16 16 16 14 12 16 19 18 18 19 18 17 18
Wind_Direction
230 229 230 232 231 232 237 243 245 246 245 241 235 232 237 244 250 256 261 267 285 314 319 297 284 275 262 260 256 267 280 262 239 228 232 234 233 231 232 235 233 231 229 232 227 213 211 211 211 214 218 215 209 212 215 208 202 204 207 205 206 208 211 212 213 216 214 214 214 210 212 215 218 222 227 231 231 230 229 232 237 241 252 266 279
234 232 234 236 235 237 239 243 246 246 245 238 232 236 239 245 251 255 262 269 282 302 304 286 281 258 220 242 255 257 290 288 244 226 226 228 234 236 238 243 242 242 234 234 234 222 217 214 212 216 218 217 214 215 219 216 211 209 212 213 214 214 215 220 222 222 221 221 220 217 219 223 228 232 236 241 245 247 248 249 249 249 252 260 273
235 235 239 243 243 243 243 246 247 245 244 236 231 238 241 247 252 254 262 267 281 294 286 261 255 219 202 252 267 254 259 285 251 224 226 226 230 233 240 250 249 251 244 238 237 231 227 222 217 220 220 219 216 216 219 222 221 214 215 218 221 221 219 223 227 228 229 227 226 224 226 231 235 240 244 248 252 255 255 256 257 258 259 261 268
236 237 242 248 250 251 249 248 248 245 244 238 235 239 243 249 252 259 268 275 289 290 268 235 211 190 221 249 244 242 251 267 258 226 220 219 221 223 232 250 255 254 251 245 241 233 229 226 224 226 227 225 221 219 220 223 229 225 221 223 225 226 224 224 227 231 233 233 234 234 235 239 241 246 252 254 257 261 260 257 258 259 261 263 266
236 238 243 250 254 255 253 251 249 246 244 240 238 239 243 249 255 264 269 276 287 279 265 240 208 208 239 225 198 213 253 265 268 250 221 215 216 217 222 239 254 255 251 246 243 237 228 225 228 228 229 233 228 222 222 222 229 230 227 230 231 232 231 227 227 229 232 234 236 238 241 245 248 250 256 259 259 261 262 262 262 262 262 262 265
237 239 244 250 254 256 255 252 248 246 243 240 241 240 243 250 258 263 265 274 282 272 269 242 214 219 209 192 184 199 276 268 260 262 231 212 206 210 218 230 243 253 257 251 244 244 235 226 227 226 226 236 235 228 229 229 234 235 231 233 235 236 237 236 235 233 234 236 236 238 240 246 251 254 258 261 262 263 264 265 266 267 266 265 265
237 239 244 249 253 255 254 250 246 244 242 243 244 244 245 251 259 265 270 275 278 273 265 239 222 221 173 156 155 188 290 312 259 270 241 200 192 202 216 229 237 246 256 255 244 241 237 228 228 229 225 233 236 230 232 235 238 240 236 236 240 241 240 240 242 242 242 243 243 243 241 244 248 251 254 256 259 261 263 265 267 268 268 267 265
236 238 243 247 251 253 251 248 245 243 246 249 248 247 248 252 260 266 274 275 274 273 259 244 233 220 183 154 155 201 256 341 303 291 213 181 182 200 218 233 239 242 249 249 241 232 233 228 230 240 234 231 234 229 231 237 240 243 241 242 245 246 245 244 245 247 250 251 251 250 246 247 249 250 252 254 256 259 263 266 266 265 264 266 267
235 237 241 244 248 250 248 246 246 247 251 254 252 250 249 253 260 265 274 274 269 265 253 249 236 217 197 156 145 188 239 60 229 260 181 177 185 204 223 239 242 242 244 244 242 232 229 228 228 242 242 237 237 233 233 236 242 247 246 246 249 250 250 249 248 249 255 257 255 253 251 252 254 255 257 259 261 266 269 268 267 267 264 261 261
238 239 240 241 244 246 247 246 246 250 252 254 253 251 249 254 259 263 269 270 266 262 247 239 226 208 197 169 158 185 221 172 180 202 189 190 196 203 217 235 240 243 244 246 249 241 233 230 232 240 246 246 245 246 245 239 240 246 247 248 251 252 251 250 249 251 256 260 259 258 258 258 258 258 261 262 265 267 268 267 266 267 266 262 259
241 242 241 239 241 242 244 245 247 250 250 252 252 249 250 253 257 260 263 264 266 263 242 232 223 211 204 190 185 201 224 231 198 197 195 197 199 200 205 217 229 239 247 251 250 246 241 239 244 248 249 249 247 251 257 249 244 245 246 250 254 255 253 250 253 255 256 258 259 260 261 262 263 265 267 269 270 269 269 272 271 268 269 270 271
242 243 242 239 240 241 243 244 246 248 248 251 252 252 254 256 257 259 257 259 263 255 236 231 226 219 211 208 206 205 226 242 203 198 195 195 201 202 199 204 215 226 241 248 245 246 246 246 254 255 251 249 243 245 249 247 247 251 253 253 251 254 253 253 256 258 257 257 258 260 263 266 268 268 268 268 267 270 275 278 275 273 275 277 278
244 244 243 241 241 242 242 243 245 247 249 252 254 256 258 258 258 258 256 258 261 246 228 227 218 211 209 212 218 211 219 228 209 205 202 204 208 207 203 206 214 215 223 234 240 247 248 252 261 259 255 250 243 245 249 247 246 255 261 259 255 257 258 256 257 258 258 261 262 263 266 269 272 270 267 267 265 267 275 278 276 276 279 279 278
244 243 243 243 241 241 241 242 245 248 249 250 252 255 258 257 254 253 254 256 257 241 225 223 210 198 197 205 210 154 197 214 217 213 214 218 219 213 207 207 215 218 216 220 246 267 268 272 273 260 250 239 242 251 255 257 262 266 262 261 271 273 267 260 259 259 263 267 267 268 271 272 273 271 271 272 269 265 269 273 271 272 275 276 277
242 241 242 242 241 240 241 243 247 249 249 249 250 252 255 253 248 248 253 254 251 236 226 225 211 180 148 180 240 114 167 218 219 220 223 223 222 216 208 205 212 219 224 239 268 274 291 306 282 278 265 240 253 264 261 261 22 40 61 248 276 279 277 275 272 274 278 279 278 282 288 287 281 278 279 278 276 274 271 269 267 267 270 270 272
238 238 240 241 241 240 242 245 248 250 249 249 251 252 251 249 245 243 246 248 242 232 227 224 218 200 148 89 8 89 276 229 207 226 233 228 223 217 210 208 212 218 229 253 273 269 284 325 267 290 296 294 301 303 286 97 79 74 77 73 64 33 290 271 273 292 305 307 306 308 312 310 299 299 299 285 280 281 280 278 273 269 269 271 272
237 238 240 241 241 240 242 245 247 249 249 250 253 254 252 249 247 243 240 239 237 236 231 222 223 222 205 158 89 115 231 182 162 232 242 231 223 214 210 213 215 221 229 239 258 269 277 268 270 315 320 310 320 329 348 78 57 57 68 66 64 62 61 77 98 22 342 342 343 343 347 349 342 338 328 306 292 288 288 290 283 275 272 275 277
238 239 240 241 242 241 243 244 246 248 249 251 253 253 250 248 249 245 237 233 235 240 232 223 226 228 229 233 245 268 229 158 142 80 244 229 224 213 213 217 218 224 229 232 248 261 269 275 285 327 341 331 329 0 58 70 63 68 66 61 57 54 57 63 66 69 59 44 37 32 28 22 15 8 0 348 333 316 306 302 292 284 281 279 282
239 239 240 241 242 243 244 245 247 248 249 251 252 252 249 247 252 247 233 227 231 236 229 226 229 229 237 243 254 268 234 182 170 171 130 208 224 215 219 223 222 226 231 234 242 251 257 269 289 323 343 343 346 17 63 83 89 84 74 64 56 52 54 55 55 61 62 58 49 37 26 19 14 11 10 8 2 354 345 341 333 320 307 298 294
238 239 240 241 242 243 244 245 246 247 248 251 253 252 247 246 249 239 227 224 228 232 230 231 232 230 235 238 246 251 219 204 206 190 146 132 217 214 222 228 229 229 235 240 243 249 251 255 275 308 327 328 338 0 36 79 87 80 71 63 57 51 47 43 42 45 45 40 33 25 19 11 3 357 357 2 3 1 356 354 354 352 347 338 328
237 239 241 242 243 243 244 245 245 245 247 251 253 250 245 244 241 228 222 222 225 230 233 236 238 236 235 234 234 225 209 209 205 191 155 149 194 212 212 222 233 233 235 241 246 249 250 251 263 283 300 298 298 314 327 353 12 24 39 40 41 41 38 33 28 23 20 17 12 10 9 8 5 358 352 354 355 353 350 349 349 350 349 349 347
236 238 240 242 243 243 243 244 244 244 246 250 250 247 244 239 232 226 225 225 225 229 234 238 245 246 242 241 234 219 211 203 187 183 156 152 180 209 204 205 224 234 234 238 245 251 250 248 253 266 282 288 286 288 295 306 318 329 339 344 350 358 8 13 12 7 1 360 358 357 357 359 1 360 355 352 351 348 346 344 343 342 341 341 342
235 237 239 241 242 241 242 243 243 242 244 248 248 247 243 232 224 225 228 229 227 230 234 239 249 250 245 245 243 234 227 223 211 200 184 170 172 194 209 208 218 232 233 235 242 248 250 249 249 254 267 279 284 285 286 290 293 299 303 309 317 323 333 344 349 351 350 347 346 345 345 346 349 350 347 342 339 338 337 337 336 336 335 334 334
233 235 237 238 238 239 240 240 240 240 242 246 247 246 240 228 221 223 225 227 228 232 236 240 246 249 245 245 247 248 243 240 247 238 223 213 197 184 200 204 220 236 237 239 244 246 247 248 249 252 260 271 279 283 285 285 286 289 291 293 300 307 315 323 327 333 336 335 333 331 331 332 335 338 337 332 328 326 324 322 321 320 320 321 322
229 232 235 236 237 237 238 239 238 239 242 245 245 242 236 226 220 222 223 225 229 235 239 242 246 248 247 245 245 249 249 247 256 260 252 238 217 183 179 190 222 242 241 243 248 249 248 248 248 251 256 264 274 281 284 286 288 290 289 288 291 296 305 310 313 315 317 319 319 317 316 316 318 322 324 326 324 321 319 316 314 312 310 310 309
229 233 236 236 237 238 238 239 239 240 242 244 243 237 232 227 223 223 223 225 231 237 241 243 244 245 246 246 246 247 249 248 251 256 257 251 238 207 172 168 232 245 234 237 243 250 252 253 251 251 254 261 269 278 283 287 289 290 289 287 286 288 295 303 307 308 308 309 309 309 308 306 306 308 311 315 317 318 318 316 314 311 309 308 306
231 234 237 237 237 237 238 239 239 239 241 242 240 234 230 228 227 227 227 229 234 238 242 242 242 243 244 244 245 246 245 246 250 256 258 260 255 230 198 172 188 296 260 241 247 252 254 259 259 255 256 259 265 275 281 284 284 283 284 282 279 279 282 289 297 301 303 304 304 304 304 302 301 301 302 305 309 310 312 312 311 310 308 307 306
232 234 236 237 237 236 236 238 238 238 239 240 237 233 230 228 228 230 230 232 237 240 242 242 242 245 247 246 244 243 241 242 249 256 257 260 263 244 221 204 195 220 306 281 269 258 257 261 264 262 262 261 263 270 276 280 278 273 271 271 271 271 275 281 289 293 295 296 297 298 298 297 295 295 296 298 302 304 305 306 305 305 305 304 304
232 233 235 236 237 237 236 236 237 236 238 238 235 232 230 229 230 233 233 234 238 241 242 242 244 247 250 250 246 243 240 239 243 249 252 256 257 249 238 229 220 208 187 263 257 251 256 262 263 265 267 264 263 265 269 276 275 263 255 257 264 270 274 281 286 289 290 292 294 296 295 293 292 292 291 292 294 298 300 302 302 301 300 299 299
231 231 233 235 236 236 235 235 235 236 236 235 234 233 230 230 231 234 236 237 240 243 244 243 244 247 250 250 246 243 240 239 240 240 243 252 252 248 247 242 236 230 222 229 257 255 262 274 274 269 264 258 254 255 261 269 270 261 256 259 267 275 281 284 286 289 294 299 302 303 302 300 297 294 291 289 290 295 299 302 303 301 299 297 296
228 229 230 232 234 234 232 233 233 234 235 234 233 233 231 231 232 235 237 238 241 244 245 244 243 245 248 247 245 242 241 241 239 237 242 250 251 248 247 242 240 243 241 234 245 271 275 289 290 273 257 251 249 255 265 269 272 273 271 271 275 280 283 285 287 292 297 301 303 305 306 307 305 302 298 295 294 297 301 303 304 303 299 296 293
226 226 228 230 232 232 230 231 231 232 232 232 231 232 232 232 233 235 237 238 241 243 244 244 243 244 245 245 245 244 243 241 239 237 240 243 244 243 243 241 238 241 241 232 231 264 275 282 285 267 249 249 254 262 268 269 271 272 270 271 275 280 283 285 289 294 299 302 302 302 304 305 306 306 304 302 300 299 299 300 301 300 297 294 291
224 224 226 228 230 230 229 229 230 231 231 231 230 230 231 233 234 236 237 238 240 241 243 244 243 243 244 244 245 245 244 242 240 239 237 236 236 235 237 238 235 233 234 232 235 254 269 272 270 258 245 249 258 261 268 272 270 265 263 266 273 281 286 290 293 296 301 305 303 301 302 304 307 308 306 303 301 299 299 300 299 298 295 292 290
223 223 225 226 228 228 228 229 230 231 231 231 230 230 230 233 235 236 237 238 239 241 242 244 244 243 242 243 244 245 244 244 242 240 237 234 233 234 235 233 232 232 233 234 235 239 247 257 263 257 248 252 258 261 271 280 277 268 265 269 278 285 290 292 292 292 297 303 302 303 307 309 308 308 309 307 304 300 298 297 296 296 295 295 293
221 223 225 225 226 227 227 229 230 230 230 230 230 231 232 233 234 236 237 237 239 240 241 244 244 242 241 241 243 242 242 244 244 243 239 236 236 237 234 230 230 233 234 235 236 235 240 250 256 253 250 252 258 265 277 282 281 278 276 281 287 289 293 295 292 288 290 294 296 299 306 310 308 306 307 308 307 304 300 297 295 294 294 294 293
219 221 224 224 225 225 226 228 228 228 228 228 229 231 233 234 235 236 238 238 239 240 241 243 244 242 240 241 242 241 240 241 244 244 241 238 238 236 233 231 233 234 233 236 239 240 244 249 250 251 253 255 260 267 278 283 285 285 286 290 291 291 296 300 295 288 284 286 288 292 300 306 307 305 304 304 304 305 305 304 301 297 293 291 289
218 220 221 221 222 224 225 227 227 227 227 227 228 230 233 234 236 237 238 239 240 240 242 243 244 243 243 243 243 240 238 239 241 242 242 241 241 238 236 237 237 236 236 239 242 244 245 248 253 259 262 263 265 269 277 284 290 291 291 291 290 294 304 309 303 289 281 281 282 287 293 297 300 301 300 301 303 307 308 303 299 295 293 293 293
217 219 220 220 221 223 225 227 227 226 226 226 228 230 232 233 235 236 237 238 240 241 241 242 243 244 245 245 244 239 237 238 239 242 242 242 242 240 238 238 238 238 240 242 242 244 247 251 257 263 267 268 269 272 277 282 288 290 291 292 295 303 312 313 306 293 282 280 282 287 292 293 297 299 298 301 306 311 311 302 294 291 291 293 294
217 219 220 221 222 224 225 226 226 226 225 225 227 228 230 231 233 234 235 236 238 240 241 242 243 245 246 246 244 240 238 236 238 245 247 245 244 242 239 238 238 240 242 243 242 243 247 251 255 261 266 267 269 274 279 284 286 285 295 312 310 308 310 307 299 292 286 284 285 288 292 295 302 303 301 305 310 311 307 298 292 291 289 289 288
216 218 220 222 223 225 225 225 225 224 223 224 226 226 227 228 230 231 233 234 235 237 240 242 243 245 246 246 244 242 240 236 236 244 250 250 245 240 238 238 239 242 243 241 241 242 245 249 253 259 263 265 270 277 281 286 283 277 298 313 301 297 302 302 295 291 290 289 289 289 292 298 303 305 305 307 310 308 301 293 292 293 292 289 289
216 218 220 222 223 223 224 223 223 222 221 223 226 226 226 226 227 229 231 232 233 235 237 240 243 244 246 246 244 242 241 236 233 239 250 255 249 241 238 237 238 241 241 239 239 240 242 246 251 256 259 264 273 280 282 287 286 285 299 298 284 287 298 300 294 290 289 292 291 290 294 299 301 304 307 307 305 302 297 295 296 297 297 295 294
215 217 218 221 222 222 222 221 221 220 221 224 227 228 228 227 226 227 229 231 232 233 235 237 240 243 245 245 244 243 240 235 235 239 245 252 250 245 243 240 238 237 234 233 236 238 239 242 247 252 254 264 275 279 281 290 295 297 301 291 278 286 296 297 295 293 293 296 295 294 299 303 301 302 304 302 299 297 298 300 300 299 299 298 297
214 215 217 219 220 221 221 220 220 219 221 225 228 229 229 228 227 226 228 230 230 231 233 235 237 241 244 244 242 242 239 236 239 242 242 247 249 246 245 242 240 238 233 231 234 235 235 239 246 251 251 262 275 279 282 291 296 296 294 287 282 286 289 290 293 295 298 303 301 298 300 302 302 303 302 299 298 299 302 303 303 304 303 302 301
213 214 215 218 219 219 219 220 220 220 222 226 228 228 229 228 228 227 228 229 229 230 232 234 235 239 241 240 238 243 244 240 239 240 241 248 249 246 245 241 238 238 238 239 240 237 238 243 248 251 252 260 273 280 283 288 288 286 286 286 286 286 285 285 284 289 298 304 301 296 294 296 300 300 298 298 299 302 303 304 306 307 306 304 303
213 213 214 216 217 218 218 219 220 221 224 227 228 228 228 228 228 228 228 228 229 230 232 233 234 236 236 234 236 243 244 239 236 236 241 248 246 242 241 237 234 237 237 238 241 242 246 249 248 252 258 263 272 280 283 281 278 280 283 284 286 287 286 284 282 289 298 299 296 292 290 295 299 298 295 298 302 304 304 304 307 307 305 304 302
212 212 214 215 215 216 218 219 219 221 225 227 228 227 227 228 229 228 227 228 229 231 232 233 233 234 232 232 236 240 242 239 235 232 238 244 240 236 234 231 230 229 225 226 232 238 245 248 251 260 266 267 271 279 280 274 272 277 279 280 284 286 284 283 284 290 295 294 294 291 287 295 302 298 295 301 305 304 303 304 306 307 306 306 305
212 213 213 214 215 216 217 218 219 222 225 227 227 227 227 228 229 228 227 226 228 230 232 233 234 234 232 232 235 237 242 243 235 229 233 239 235 232 230 226 222 217 217 223 228 234 243 249 254 261 264 268 275 280 279 274 271 273 273 274 280 283 285 286 286 288 291 293 295 288 277 295 305 297 294 303 307 304 304 306 307 309 309 310 312
214 214 214 215 215 215 216 216 218 222 225 226 226 226 227 228 228 227 225 225 227 228 229 232 234 235 234 233 231 232 236 238 232 228 234 236 230 228 223 215 211 210 214 221 226 233 240 241 246 259 269 278 283 279 275 272 270 275 275 272 276 280 281 282 282 287 293 299 302 295 278 290 304 298 294 304 307 304 306 310 313 316 316 316 317
214 214 214 215 216 215 215 216 218 222 225 225 226 226 227 227 225 224 223 223 224 225 228 231 233 233 234 235 232 228 229 231 228 227 232 232 226 221 213 204 202 206 209 215 222 227 231 237 255 274 279 276 267 259 262 266 273 282 277 273 279 279 274 272 276 287 297 303 309 306 285 286 301 301 297 304 307 306 310 317 321 324 321 319 318
213 214 214 215 216 215 215 217 219 221 223 224 225 225 226 225 224 223 223 222 221 223 226 228 231 233 233 234 232 227 226 228 227 224 225 225 219 213 205 199 198 200 202 206 210 210 220 244 261 264 253 246 243 252 270 276 278 279 274 275 282 281 272 268 272 289 299 302 308 309 285 285 299 302 300 305 307 306 310 318 324 326 325 323 321
213 214 214 214 215 215 216 219 220 221 222 224 224 224 224 225 224 223 221 219 218 221 222 223 228 230 230 229 228 227 227 225 220 218 220 218 214 210 205 199 197 197 199 201 204 208 219 229 232 226 225 239 256 268 278 281 279 277 274 274 276 273 271 274 281 289 293 299 310 311 290 288 298 301 303 306 305 306 312 316 319 324 326 324 320